STARLINK-4080, 52835

Orbit data source: Space-Track

STARLINK-4080, 52835 is a payload satellite owned by SpaceX/Seattle (US) in LEO that was launched on Fri, 17 Jun 2022 UTC via an FALCON 9 launch vehicle from the Air Force Eastern Test Range (AFETR). Payload-class satellites include a variety of spacecraft equipped with specific instruments for various scientific and technological missions. These include communications satellites like Starlink; space stations such as the ISS; scientific satellites like the Hubble; Earth observation satellites from companies like Planet Labs, Umbra, and HawkEye 360; GPS; miniature CubeSats for education and research; and military/defense satellites.

Loading next visibility...
Identifier
52835, 2022-062F
Orbit
LEO
Country
Flag of USUS
Related business
Manufacturer
SpaceX/Seattle
Mission
Operational Commercial Communications
Bus & Motor
STARLINK, Unknown motor
Mass
297 kg wet, ~275 kg dry
Launch date (UTC)
2022-06-17 (3 years ago)
Launch vehicle
FALCON 9
Launch site
Air Force Eastern Test Range (AFETR)
Object type
Payload
Rocket body
Debris
Shape & HBR
Box + 1 Pan, 10.1 m
Radar Cross Section
13.562 m², Large (>1 m²)

Expand to show TLE details & history
Last TLE update: 17 hours ago

TLE from 17 hours ago
0 STARLINK-4080
1 52835U 22062F   25348.90392689 -.00006400  00000-0 -38414-3 0  9998
2 52835  53.2183  54.7401 0001873 117.7142 242.4040 15.08858953192987
Epoch: 2025-12-14T21:41Z
TLE epoch observation values (Epoch: 2025-12-14T21:41:39.283Z)
Latitude
-0.00004°
Longitude
5.51623°
Altitude
541.183 km
Speed
7.593 km/s
True Right ascension
03h 38m 57s
True Declination
0° 00' 00"
Sunlit
Object was in full shadow at epoch
Visualization orbit readout
Latitude
Unknown
Longitude
Unknown
Altitude
Unknown
Speed
Unknown
Apparent Right ascension
Unknown
Apparent Declination
Unknown
Sunlit
N/A
Visualization observer readout
Local Sidereal Time
13:18:57
Azimuth
Unknown
Elevation
Unknown
Doppler factor
Unknown
Orbital elements
Apogee altitude
541.226 km
Perigee altitude
538.635 km
Semi-major axis
6,918.067 km
Eccentricity
0.00019
Inclination
53.2183°
RAAN
54.7401°
Arg. of periapsis
117.7142°
True anomaly
242.38498°
Mean anomaly
242.404°
Eccentric anomaly
242.39449°
Mean motion
3.77195 °/min
Orbital period
95.44 mins
BSTAR
-0.00038414
Loading maneuver chart data...
Computing Atmospheric mass density...
Loading historical data...
Loading historical data...
Loading historical data...
Loading historical data...
Loading historical data...
Loading historical data...
Loading historical data...

Documentation

Showing up to 5 results
|